When you browse on this site, cookies collect data to enhance your experience and personalize the content and advertising you see.
Visit our Privacy Policy to learn more. By continuing to use the site, you agree to this use of cookies and data.
  • In Czech Republic
  • List of Countries
  • For 7 days
  • Water Temperature
  • Satellite Maps
  • Weather Map
  • Weather Widgets
  • user-avatar
    Login

    Hourly Weather Waterbury

    Today, 17 January, Thursday

    Time Temperature Precipitation Wind Pressure Humidity
    00:00 -5°C° 0 mm 3 mps 753 mmHg 56%
    01:00 -5°C° 0 mm 3 mps 754 mmHg 58%
    02:00 -6°C° 0 mm 3 mps 754 mmHg 55%
    03:00 -6°C° 0 mm 3 mps 755 mmHg 53%
    04:00 -7°C° 0 mm 3 mps 755 mmHg 50%
    05:00 -7°C° 0 mm 3 mps 756 mmHg 44%
    06:00 -8°C° 0 mm 3 mps 756 mmHg 38%
    07:00 -8°C° 0 mm 2 mps 757 mmHg 28%
    08:00 -8°C° 0 mm 2 mps 757 mmHg 24%
    09:00 -7°C° 0 mm 2 mps 758 mmHg 19%
    10:00 -6°C° 0 mm 2 mps 758 mmHg 15%
    11:00 -5°C° 0 mm 2 mps 758 mmHg 14%
    12:00 -2°C° 0 mm 1 mps 757 mmHg 12%
    13:00 0°C° 0 mm 1 mps 757 mmHg 11%
    14:00 -1°C° 0 mm 1 mps 756 mmHg 12%
    15:00 -1°C° 0 mm 1 mps 756 mmHg 12%
    16:00 -1°C° 0 mm 1 mps 756 mmHg 13%
    17:00 -1°C° 0 mm 1 mps 756 mmHg 15%
    18:00 -2°C° 0 mm 1 mps 756 mmHg 16%
    19:00 -2°C° 0 mm 1 mps 756 mmHg 18%
    20:00 -2°C° 0 mm 1 mps 755 mmHg 21%
    21:00 -4°C° 0 mm 2 mps 755 mmHg 24%
    22:00 -4°C° 0 mm 2 mps 755 mmHg 27%
    23:00 -4°C° 0 mm 2 mps 754 mmHg 34%

    Tomorrow, 18 January, Friday

    Time Temperature Precipitation Wind Pressure Humidity
    00:00 -3°C° 0 mm 2 mps 754 mmHg 41%
    01:00 -3°C° 0 mm 2 mps 753 mmHg 47%
    02:00 -3°C° 0.2 mm 2 mps 753 mmHg 59%
    03:00 -2°C° 0.2 mm 1 mps 752 mmHg 70%
    04:00 -2°C° 0.2 mm 1 mps 752 mmHg 82%
    05:00 -1°C° 0.1 mm 1 mps 751 mmHg 85%
    06:00 -1°C° 0.1 mm 1 mps 751 mmHg 87%
    07:00 -2°C° 0.1 mm 0 mps 751 mmHg 90%
    08:00 0°C° 0 mm 1 mps 751 mmHg 87%
    09:00 +1°C° 0 mm 1 mps 751 mmHg 85%
    10:00 +2°C° 0 mm 1 mps 750 mmHg 82%
    11:00 +2°C° 0 mm 1 mps 750 mmHg 83%
    12:00 +3°C° 0 mm 1 mps 749 mmHg 83%
    13:00 +3°C° 0 mm 1 mps 748 mmHg 84%
    14:00 +3°C° 0 mm 1 mps 748 mmHg 86%
    15:00 +3°C° 0 mm 1 mps 748 mmHg 89%
    16:00 +3°C° 0 mm 1 mps 748 mmHg 91%
    17:00 +2°C° 0 mm 1 mps 748 mmHg 92%
    18:00 +1°C° 0 mm 1 mps 749 mmHg 93%
    19:00 0°C° 0 mm 1 mps 749 mmHg 94%
    20:00 -2°C° 0 mm 2 mps 749 mmHg 93%
    21:00 -2°C° 0 mm 2 mps 750 mmHg 92%
    22:00 -2°C° 0 mm 2 mps 750 mmHg 91%
    23:00 -2°C° 0 mm 2 mps 751 mmHg 85%

    Day after tomorrow, 19 January, Saturday

    Time Temperature Precipitation Wind Pressure Humidity
    00:00 -3°C° 0 mm 2 mps 751 mmHg 79%
    01:00 -3°C° 0 mm 2 mps 751 mmHg 74%
    02:00 -4°C° 0 mm 3 mps 752 mmHg 68%
    03:00 -5°C° 0 mm 3 mps 752 mmHg 62%
    04:00 -5°C° 0 mm 3 mps 753 mmHg 56%
    05:00 -5°C° 0 mm 3 mps 753 mmHg 56%
    06:00 -5°C° 0 mm 2 mps 753 mmHg 56%
    07:00 -5°C° 0 mm 2 mps 754 mmHg 57%
    08:00 -4°C° 0 mm 2 mps 754 mmHg 55%
    09:00 -3°C° 0 mm 2 mps 754 mmHg 53%
    10:00 -2°C° 0 mm 2 mps 755 mmHg 50%
    11:00 -2°C° 0 mm 2 mps 754 mmHg 49%
    12:00 -2°C° 0 mm 2 mps 754 mmHg 48%
    13:00 -1°C° 0 mm 2 mps 753 mmHg 47%
    14:00 -1°C° 0 mm 3 mps 753 mmHg 46%
    15:00 -2°C° 0 mm 3 mps 752 mmHg 46%
    16:00 -2°C° 0 mm 3 mps 752 mmHg 46%
    17:00 -4°C° 0.4 mm 4 mps 751 mmHg 60%
    18:00 -4°C° 0.4 mm 4 mps 750 mmHg 74%
    19:00 -4°C° 0.4 mm 4 mps 749 mmHg 87%
    20:00 -4°C° 1.3 mm 4 mps 748 mmHg 89%
    21:00 -5°C° 1.3 mm 5 mps 747 mmHg 90%
    22:00 -5°C° 1.3 mm 6 mps 746 mmHg 91%
    23:00 -4°C° 2.7 mm 6 mps 744 mmHg 93%

    20 January, Sunday

    Time Temperature Precipitation Wind Pressure Humidity
    00:00 -2°C° 2.7 mm 6 mps 742 mmHg 94%
    01:00 -1°C° 2.7 mm 6 mps 741 mmHg 96%
    02:00 0°C° 4.9 mm 5 mps 739 mmHg 96%
    03:00 +1°C° 4.9 mm 4 mps 738 mmHg 97%
    04:00 +2°C° 4.9 mm 3 mps 736 mmHg 98%
    05:00 +2°C° 2.5 mm 3 mps 735 mmHg 98%
    06:00 +2°C° 2.5 mm 3 mps 735 mmHg 98%
    07:00 +3°C° 2.5 mm 2 mps 734 mmHg 98%
    08:00 +2°C° 2.1 mm 3 mps 733 mmHg 98%
    09:00 +1°C° 2.1 mm 3 mps 733 mmHg 97%
    10:00 +1°C° 2.1 mm 3 mps 733 mmHg 97%
    11:00 -2°C° 2 mm 4 mps 732 mmHg 96%
    12:00 -5°C° 2 mm 6 mps 732 mmHg 95%
    13:00 -7°C° 2 mm 7 mps 732 mmHg 94%
    14:00 -8°C° 1.7 mm 7 mps 732 mmHg 92%
    15:00 -9°C° 1.7 mm 7 mps 733 mmHg 89%
    16:00 -11°C° 1.7 mm 8 mps 733 mmHg 86%
    17:00 -12°C° 0 mm 8 mps 734 mmHg 84%
    18:00 -13°C° 0 mm 8 mps 735 mmHg 82%
    19:00 -16°C° 0 mm 8 mps 736 mmHg 79%
    20:00 -17°C° 0 mm 8 mps 737 mmHg 79%
    21:00 -18°C° 0 mm 7 mps 738 mmHg 78%
    22:00 -20°C° 0 mm 7 mps 739 mmHg 77%
    23:00 -20°C° 0 mm 7 mps 739 mmHg 77%

    21 January, Monday

    Time Temperature Precipitation Wind Pressure Humidity
    00:00 -21°C° 0 mm 7 mps 740 mmHg 77%
    01:00 -23°C° 0 mm 7 mps 741 mmHg 77%
    02:00 -23°C° 0 mm 7 mps 742 mmHg 77%
    03:00 -24°C° 0 mm 7 mps 742 mmHg 77%
    04:00 -25°C° 0 mm 7 mps 743 mmHg 77%
    05:00 -25°C° 0 mm 7 mps 744 mmHg 77%
    06:00 -25°C° 0 mm 7 mps 745 mmHg 77%
    07:00 -26°C° 0 mm 7 mps 746 mmHg 77%
    08:00 -25°C° 0 mm 7 mps 746 mmHg 76%
    09:00 -24°C° 0 mm 7 mps 747 mmHg 76%
    10:00 -24°C° 0 mm 7 mps 748 mmHg 76%
    11:00 -23°C° 0 mm 7 mps 748 mmHg 75%
    12:00 -20°C° 0 mm 7 mps 749 mmHg 73%
    13:00 -19°C° 0 mm 7 mps 749 mmHg 72%
    14:00 -19°C° 0 mm 7 mps 750 mmHg 70%
    15:00 -19°C° 0 mm 7 mps 750 mmHg 68%
    16:00 -20°C° 0 mm 6 mps 751 mmHg 66%
    17:00 -20°C° 0 mm 6 mps 752 mmHg 67%
    18:00 -21°C° 0 mm 6 mps 753 mmHg 68%
    19:00 -21°C° 0 mm 6 mps 754 mmHg 69%
    20:00 -21°C° 0 mm 5 mps 755 mmHg 69%
    21:00 -21°C° 0 mm 5 mps 756 mmHg 70%
    22:00 -21°C° 0 mm 5 mps 756 mmHg 70%
    23:00 -21°C° 0 mm 5 mps 757 mmHg 70%

    22 January, Tuesday

    Time Temperature Precipitation Wind Pressure Humidity
    00:00 -21°C° 0 mm 5 mps 757 mmHg 71%
    01:00 -21°C° 0 mm 5 mps 758 mmHg 71%
    02:00 -19°C° 0 mm 4 mps 758 mmHg 71%
    03:00 -19°C° 0 mm 4 mps 758 mmHg 71%
    04:00 -18°C° 0 mm 3 mps 758 mmHg 70%
    05:00 -18°C° 0 mm 3 mps 759 mmHg 72%
    06:00 -18°C° 0 mm 2 mps 759 mmHg 74%
    07:00 -18°C° 0 mm 2 mps 760 mmHg 76%
    08:00 -14°C° 0 mm 1 mps 760 mmHg 72%
    09:00 -12°C° 0 mm 1 mps 760 mmHg 68%
    10:00 -10°C° 0 mm 1 mps 760 mmHg 65%
    11:00 -8°C° 0 mm 1 mps 760 mmHg 64%
    12:00 -6°C° 0 mm 1 mps 759 mmHg 64%
    13:00 -5°C° 0 mm 2 mps 759 mmHg 63%
    14:00 -5°C° 0 mm 2 mps 758 mmHg 65%
    15:00 -6°C° 0 mm 2 mps 758 mmHg 67%
    16:00 -6°C° 0 mm 2 mps 758 mmHg 70%
    17:00 -6°C° 0 mm 2 mps 758 mmHg 72%
    18:00 -7°C° 0 mm 2 mps 757 mmHg 74%
    19:00 -8°C° 0 mm 2 mps 757 mmHg 76%
    20:00 -7°C° 0 mm 2 mps 757 mmHg 75%
    21:00 -8°C° 0 mm 3 mps 756 mmHg 75%
    22:00 -7°C° 0 mm 3 mps 756 mmHg 74%
    23:00 -6°C° 0 mm 3 mps 755 mmHg 75%
    Show more